Powrót do katalogu

STARLINK-5476

AktywnyŁącznośćVLEO
NORAD 57258·PAYLOAD·🇺🇸 United States

Wystrzelony Jul 7, 2023 z Vandenberg Space Force Base

Loading…

Następne Przeloty (najbliższe 24 godziny)

TLE

ŚwieżeSource: CelesTrak SupGP

Epoka: Sep 15, 2026, 02:28 UTC

1 57258C 23094AS  26258.10326389 -.00034136  00000+0 -12364-2 0  2584
2 57258  43.0022  30.0105 0001479 268.6954 330.4745 15.27594063    19

Śledź STARLINK-5476 w czasie rzeczywistym z AllMySat

Download on the App Store